Muskogee, OK

1:38 PM CDT on March 28, 2017 (GMT -0500)
Davis

Weather History for KMKO - September, 2013

Change the Weather History Date:

Friday, September 6, 2013

  Actual Average Record
Temperature  
Mean Temperature 80 °F -  
Max Temperature 93 °F 86 °F 102 °F (2012)
Min Temperature 66 °F 63 °F 50 °F (2011)
Cooling Degree Days 14    
Growing Degree Days 30 (Base 50)    
Moisture  
Dew Point 62 °F    
Average Humidity 60    
Maximum Humidity 87    
Minimum Humidity 32    
Precipitation  
Precipitation 0.00 in - - ()
Sea Level Pressure  
Sea Level Pressure 30.06 in    
Wind  
Wind Speed 5 mph (SSE)    
Max Wind Speed 8 mph    
Max Gust Speed -    
Visibility 10 miles    
Events      
Averages and records for this station are not official NWS values.
T = Trace of Precipitation, MM = Missing Value Source: NWS Daily Summary

Daily Weather History Graph

Daily Weather History Graph

Search for Another Location

Airport or City:

Trip Planner

Search our weather history database for the weather conditions in past years. The results will help you decide how hot, cold, wet, or windy it might be!

Date:

Astronomy

Sep. 06, 2013 Rise Set
Actual Time 6:57 AM CDT 7:41 PM CDT
Civil Twilight 6:31 AM CDT 8:07 PM CDT
Nautical Twilight 6:01 AM CDT 8:37 PM CDT
Astronomical Twilight 5:29 AM CDT 9:08 PM CDT
Moon 8:06 AM CDT (9/6) 8:11 PM CDT (9/6)
Length of Visible Light 13h 35m
Length of Day
12h 43m
New Moon, 2% of the Moon is Illuminated
Sep 6
New Moon
Sep 12
First Quarter
Sep 19
Full
Sep 26
Last Quarter
Oct 4
New

Hourly Weather History & Observations

Time (CDT) Temp. Heat Index Dew Point Humidity Pressure Visibility Wind Dir Wind Speed Gust Speed Precip Events Conditions
12:53 AM 72.0 °F - 60.1 °F 66% 30.10 in 10.0 mi SE 4.6 mph - N/A   Clear
1:53 AM 71.1 °F - 62.1 °F 73% 30.09 in 10.0 mi SSE 4.6 mph - N/A   Clear
2:53 AM 66.9 °F - 62.1 °F 84% 30.08 in 10.0 mi South 6.9 mph - N/A   Clear
3:53 AM 68.0 °F - 61.0 °F 78% 30.08 in 10.0 mi South 6.9 mph - N/A   Clear
4:53 AM 66.9 °F - 61.0 °F 81% 30.08 in 10.0 mi SSE 6.9 mph - N/A   Clear
5:53 AM 66.0 °F - 61.0 °F 84% 30.09 in 10.0 mi SSE 4.6 mph - N/A   Clear
6:53 AM 66.0 °F - 61.0 °F 84% 30.10 in 10.0 mi South 4.6 mph - N/A   Clear
7:53 AM 66.9 °F - 63.0 °F 87% 30.12 in 10.0 mi South 6.9 mph - N/A   Clear
8:53 AM 75.0 °F - 63.0 °F 66% 30.12 in 10.0 mi SSE 8.1 mph - N/A   Clear
9:53 AM 80.1 °F 81.5 °F 63.0 °F 56% 30.13 in 10.0 mi South 5.8 mph - N/A   Clear
10:53 AM 84.0 °F 84.5 °F 62.1 °F 47% 30.12 in 10.0 mi SE 6.9 mph - N/A   Clear
11:53 AM 84.9 °F 85.9 °F 63.0 °F 48% 30.12 in 10.0 mi SSE 4.6 mph - N/A   Scattered Clouds
12:53 PM 89.1 °F 90.3 °F 64.0 °F 43% 30.09 in 10.0 mi South 6.9 mph - N/A   Scattered Clouds
1:53 PM 91.9 °F 92.9 °F 63.0 °F 38% 30.07 in 10.0 mi Variable 6.9 mph - N/A   Clear
2:53 PM 93.0 °F 92.7 °F 60.1 °F 33% 30.04 in 10.0 mi Calm Calm - N/A   Clear
3:53 PM 93.0 °F 92.7 °F 60.1 °F 33% 30.02 in 10.0 mi South 5.8 mph - N/A   Clear
4:53 PM 93.9 °F 93.6 °F 60.1 °F 32% 30.00 in 10.0 mi Calm Calm - N/A   Partly Cloudy
5:53 PM 91.9 °F 92.9 °F 63.0 °F 38% 29.99 in 10.0 mi SSW 4.6 mph - N/A   Clear
6:53 PM 88.0 °F 89.3 °F 64.0 °F 45% 29.99 in 10.0 mi SSE 4.6 mph - N/A   Clear
7:53 PM 82.9 °F 84.4 °F 64.0 °F 53% 29.99 in 10.0 mi SE 4.6 mph - N/A   Clear
8:53 PM 79.0 °F - 64.0 °F 60% 29.99 in 10.0 mi SSE 5.8 mph - N/A   Clear
9:53 PM 75.9 °F - 64.0 °F 67% 29.99 in 10.0 mi SSE 5.8 mph - N/A   Clear
10:53 PM 73.9 °F - 64.9 °F 73% 29.99 in 10.0 mi South 4.6 mph - N/A   Clear
11:53 PM 72.0 °F - 64.9 °F 78% 29.99 in 10.0 mi South 6.9 mph - N/A   Clear